STARLINK-32331, 61623

Orbit data source: Space-Track

STARLINK-32331, 61623 is a payload satellite owned by SpaceX/Seattle (US) in LEO that was launched on Wed, 23 Oct 2024 UTC via an FALCON 9 launch vehicle from the Air Force Eastern Test Range (AFETR). Payload-class satellites include a variety of spacecraft equipped with specific instruments for various scientific and technological missions. These include communications satellites like Starlink; space stations such as the ISS; scientific satellites like the Hubble; Earth observation satellites from companies like Planet Labs, Umbra, and HawkEye 360; GPS; miniature CubeSats for education and research; and military/defense satellites.

Loading next visibility...
Identifier
61623, 2024-191C
Orbit
LEO
Last TLE update
18 hours ago
Origin
Manufacturer
SpaceX/Seattle
Mission
Operational Commercial Communications
Bus & Motor
STARLINK V2M, Unknown motor
Mass
730 kg wet, ~700 kg dry
Launch date (UTC)
2024-10-23 (8 months ago)
Launch vehicle
FALCON 9
Launch site
Air Force Eastern Test Range (AFETR)
Object type
Payload
Rocket body
Debris
Shape & HBR
Box + 2 Pan, 29 m
Radar Cross Section
36.964 m², Large (>1 m²)

Expand to show TLE details & history

TLE from 18 hours ago
0 STARLINK-32331
1 61623U 24191C   25187.16763584  .00000869  00000-0  41078-4 0  9995
2 61623  43.0018 110.2354 0000759 263.1122  96.9644 15.27576465 39794
Epoch: 2025-07-06T04:01Z
TLE epoch observation values (Epoch: 2025-07-06T04:01:23.736Z)
Latitude
0.00002°
Longitude
125.49132°
Altitude
482.898 km
Speed
7.626 km/s
True Right ascension
07h 20m 56s
True Declination
0° 00' 00"
Sunlit
Object was in daylight at epoch
Visualization orbit readout
Latitude
18.03578°
Longitude
-79.04691°
Altitude
482.479 km
Speed
7.627 km/s
Apparent Right ascension
19h 29m 48s
Apparent Declination
-11° 21' 57"
Sunlit
Object is in full shadow
Visualization observer readout
Local Sidereal Time
09:57:11
Azimuth
59.07° ENE
Elevation
-46.736°
Doppler factor
1
Orbital elements
Apogee altitude
485.525 km
Perigee altitude
484.484 km
Semi-major axis
6,863.142 km
Eccentricity
0.00008
Inclination
43.0018°
RAAN
110.2354°
Arg. of periapsis
263.1122°
True anomaly
Unknown
Mean anomaly
96.9644°
Eccentric anomaly
Unknown
Mean motion
3.81732 °/min
Orbital period
94.31 mins
BSTAR
0.000041078
Loading maneuver chart data...
Loading SW <> Apogee altitude chart data...
Loading historical data...
Loading historical data...
Loading historical data...
Loading historical data...
Loading historical data...
Loading historical data...
Loading historical data...

STARLINK-32331 Visibility forecast

Observer location: undefined°, undefined°

Span
Click to sort rows by Start time (UTC) header in descending order
Start Az.
Max El. time (UTC)
Max El. Az.
Max El.
End time (UTC)
End Az.
6 mins2025-07-06 23:06:08.089Z247.335° WSW2025-07-06 23:09:08.089Z188.424° SSW44.77°2025-07-06 23:12:08.089Z72.979° E
5 mins2025-07-07 00:46:08.089Z288.66° WNW2025-07-07 00:48:08.089Z345.791° N37.899°2025-07-07 00:51:08.089Z71.533° E
6 mins2025-07-07 02:25:08.089Z291.486° WNW2025-07-07 02:27:08.089Z321.191° NNW42.823°2025-07-07 02:31:08.089Z102.254° ESE
5 mins2025-07-07 04:04:08.089Z261.685° W2025-07-07 04:06:08.089Z215.491° SW26.093°2025-07-07 04:09:08.089Z153.509° SSE
4 mins2025-07-07 21:01:08.089Z179.021° S2025-07-07 21:03:08.089Z138.445° SSE18.506°2025-07-07 21:05:08.089Z102.384° ESE
|